Weather observations for the past three days for
Wittman Regional Airport
Imperial (Metric)
Date Time (cdt) Wind (mph) Vis. (mi.) Weather Sky Cond. Temperature (ºF) Relative Humidity Wind Chill (°F) Heat Index (°F) Pressure Precipitation (in)
Air Dwpt 6 hour altimeter (in) sea level (mb) 1 hr 3 hr 6 hr
Max. Min.
15 02:53 W 5 10.00 Fair CLR 73.9 72 94% 29.81 1007.7
15 01:53 W 3 10.00 Fair CLR 75.9 73 91% 76 29.8 1007.5
15 00:53 SW 5 10.00 Fair CLR 77 73 84 75 88% 78 29.81 1007.7
14 23:53 Calm 10.00 Fair CLR 77 73 88% 78 29.82 1008.1
14 22:53 Calm 10.00 Fair CLR 79 73.9 85% 83 29.82 1008.4
14 21:53 Calm 10.00 Mostly Cloudy FEW050 BKN060 80.1 73.9 82% 85 29.85 1009.3
14 20:53 W 3 10.00 Fair CLR 81 73.9 79% 86 29.82 1008.4
14 19:53 SW 3 10.00 A Few Clouds FEW055 82 73.9 77% 88 29.83 1008.6
14 18:53 SW 5 10.00 Fair CLR 84 72 88 82.9 67% 90 29.85 1009.3
14 17:53 SW 6 10.00 Fair CLR 84 71.1 65% 89 29.85 1009.4
14 16:53 Calm 10.00 Fair CLR 86 69.1 57% 90 29.84 1009.2
14 15:53 Calm 10.00 Fair CLR 87.1 68 53% 91 29.84 1009.1
14 14:53 SW 7 10.00 Fair CLR 86 70 59% 91 29.86 1009.6
14 13:53 W 6 10.00 A Few Clouds FEW060 84.9 70 61% 89 29.87 1010.2
14 12:53 W 6 10.00 Fair CLR 82.9 70 82.9 69.1 65% 87 29.89 1010.9 0.02
14 11:53 W 7 10.00 Fair CLR 81 69.1 67% 84 29.91 1011.3
14 10:53 W 7 10.00 Fair CLR 77 66 69% 79 29.9 1011.4
14 09:53 NW 9 10.00 Fair CLR 75 66 74% 76 29.88 1010.7 0.02
14 08:53 NW 12 10.00 Fair CLR 77 64 64% 79 29.85 1009.5
14 07:53 S 18 G 30 10.00 Partly Cloudy SCT110 71.1 63 76% 29.8 1008.1 0.02
14 06:53 SW 7 10.00 Thunderstorm in Vicinity Light Rain BKN110 69.1 64 71.1 68 84% 29.88 1010.5 0.04 0.04
14 05:53 SW 6 10.00 Fair CLR 70 66 87% 29.93 1012.0
14 04:53 NW 6 10.00 Mostly Cloudy SCT021 BKN060 BKN070 70 66 87% 29.97 1013.3
14 03:53 SW 6 10.00 Mostly Cloudy SCT055 BKN080 69.1 64.9 87% 29.94 1012.4
14 02:53 S 7 10.00 Mostly Cloudy BKN050 69.1 64.9 87% 29.93 1012.1
14 01:53 S 8 10.00 A Few Clouds FEW055 69.1 64.9 87% 29.91 1011.4
14 00:53 Vrbl 6 10.00 Mostly Cloudy BKN060 BKN080 BKN100 70 64.9 82 68 84% 29.95 1012.6 0.01 1.31
13 23:53 SW 7 10.00 Mostly Cloudy SCT070 BKN090 69.1 66 90% 29.96 1013.1
13 22:53 S 12 10.00 Thunderstorm in Vicinity BKN070 BKN085 69.1 66 90% 29.96 1013.0 0.15
13 21:53 S 18 10.00 Thunderstorm in Vicinity Light Rain FEW060 BKN075 BKN090 69.1 66 90% 29.99 1014.3 0.14 1.15
13 20:53 SE 8 8.00 Thunderstorm in Vicinity Light Rain FEW025 BKN095 OVC120 68 66 93% 30.02 1015.5 0.94
13 19:53 N 20 G 45 4.00 Thunderstorm in Vicinity Heavy Rain Fog/Mist FEW010 BKN039 OVC050 70 66 87% 30.05 1016.3 0.07
13 18:53 SE 10 10.00 A Few Clouds FEW049 82 72 88 82 72% 87 29.97 1013.5
13 17:53 S 9 10.00 A Few Clouds FEW042 FEW055 86 72 63% 92 29.99 1014.0
13 16:53 S 12 10.00 A Few Clouds FEW039 87.1 71.1 59% 93 30 1014.5
13 15:53 S 16 10.00 Partly Cloudy FEW037 SCT047 87.1 72 61% 94 30.03 1015.5
13 14:53 S 13 10.00 A Few Clouds FEW050 87.1 71.1 59% 93 30.07 1016.7
13 13:53 S 13 10.00 Mostly Cloudy SCT040 BKN070 86 70 59% 91 30.09 1017.5
13 12:53 S 14 G 22 10.00 Mostly Cloudy FEW040 SCT055 BKN075 84.9 69.1 86 70 59% 89 30.1 1017.7
13 11:53 S 10 G 18 10.00 Fair CLR 84 68 59% 87 30.11 1018.2
13 10:53 S 12 10.00 Partly Cloudy SCT085 82.9 69.1 63% 87 30.12 1018.4
13 09:53 S 10 10.00 Fair CLR 81 66.9 62% 83 30.13 1018.7
13 08:53 S 8 10.00 Fair CLR 78.1 66 67% 80 30.14 1019.3
13 07:53 S 8 10.00 Fair CLR 73.9 64 71% 30.15 1019.4
13 06:53 S 7 10.00 Fair CLR 70 63 71.1 64 79% 30.13 1019.0
13 05:53 S 8 10.00 Fair CLR 66.9 62.1 84% 30.13 1019.1
13 04:53 S 10 10.00 Fair CLR 68 62.1 81% 30.13 1018.7
13 03:53 S 5 10.00 Fair CLR 66 60.1 81% 30.12 1018.5
13 02:53 S 7 10.00 Fair CLR 66.9 61 81% 30.12 1018.5
13 01:53 Calm 10.00 Fair CLR 70 61 73% 30.12 1018.6
13 00:53 S 3 10.00 Fair CLR 71.1 61 82.9 68 71% 30.13 1018.9
12 23:53 S 7 10.00 Fair CLR 69.1 62.1 78% 30.13 1018.9
12 22:53 S 6 10.00 Fair CLR 71.1 63 76% 30.11 1018.3
12 21:53 SE 6 10.00 Fair CLR 73 63 71% 30.1 1017.9
12 20:53 S 6 10.00 Fair CLR 75.9 63 64% 78 30.1 1017.7
12 19:53 S 6 10.00 Fair CLR 79 64 60% 81 30.1 1017.9
12 18:53 SW 6 10.00 Fair CLR 82.9 62.1 86 82.9 49% 84 30.09 1017.6
12 17:53 S 6 10.00 Fair CLR 84 64 51% 85 30.08 1017.1
12 16:53 SW 6 10.00 Fair CLR 84.9 63 48% 86 30.08 1017.4
12 15:53 W 5 10.00 Partly Cloudy FEW050 SCT060 84.9 64 50% 86 30.09 1017.5
12 14:53 W 8 10.00 A Few Clouds FEW050 84.9 63 48% 86 30.09 1017.7
12 13:53 SW 6 10.00 A Few Clouds FEW050 84.9 64 50% 86 30.11 1018.4
12 12:53 Vrbl 3 10.00 Partly Cloudy SCT043 82.9 64.9 84.9 68 55% 85 30.12 1018.8
12 11:53 SW 8 10.00 Mostly Cloudy FEW039 SCT050 BKN070 82.9 66 57% 85 30.13 1018.8
12 10:53 SW 6 10.00 Fair CLR 81 66 61% 83 30.13 1018.9
12 09:53 Vrbl 5 10.00 Fair CLR 80.1 66 62% 82 30.13 1018.9
12 08:53 SW 5 10.00 Fair CLR 77 66 69% 79 30.13 1019.1
12 07:53 SW 5 10.00 Fair CLR 73 64 74% 30.13 1019.0
12 06:53 S 5 10.00 A Few Clouds FEW070 68 63 68 64.9 84% 30.12 1018.6
12 05:53 SW 5 10.00 Overcast BKN065 OVC085 68 62.1 81% 30.11 1018.2
12 04:53 SW 3 10.00 Partly Cloudy SCT075 66 60.1 81% 30.09 1017.8
Date Time (cdt) Wind (mph) Vis. (mi.) Weather Sky Cond. Air Dwpt Max. Min. Relative Humidity Wind Chill (°F) Heat Index (°F) altimeter (in) sea level (mb) 1 hr 3 hr 6 hr
6 hour
Temperature (ºF) Pressure Precipitation (in)